Hoquiam, WA

7:44 PM PDT on May 24, 2017 (GMT -0700)
Bowerman

Weather History for KHQM - January, 2012

Change the Weather History Date:

Sunday, January 1, 2012

  Actual Average Record
Temperature  
Mean Temperature 45 °F 42 °F  
Max Temperature 51 °F 46 °F 55 °F (1964)
Min Temperature 39 °F 37 °F 17 °F (1979)
Degree Days  
Heating Degree Days 20 23  
Month to date heating degree days 23  
Cooling Degree Days 0 0  
Month to date cooling degree days 0  
Year to date cooling degree days 0  
Moisture  
Dew Point 33 °F    
Average Humidity 64    
Maximum Humidity 77    
Minimum Humidity 50    
Precipitation  
Precipitation 0.00 in 0.34 in 3.32 in (2003)
Month to date precipitation 0.34  
Year to date precipitation 0.34  
Sea Level Pressure  
Sea Level Pressure 30.13 in    
Wind  
Wind Speed 12 mph (ENE)    
Max Wind Speed 18 mph    
Max Gust Speed 26 mph    
Visibility 10 miles    
Events Rain    
T = Trace of Precipitation, MM = Missing Value Source: NWS Daily Summary

Daily Weather History Graph

Daily Weather History Graph

Search for Another Location

Airport or City:

Trip Planner

Search our weather history database for the weather conditions in past years. The results will help you decide how hot, cold, wet, or windy it might be!

Date:

Astronomy

Jan. 01, 2012 Rise Set
Actual Time 8:01 AM PST 4:37 PM PST
Civil Twilight 7:26 AM PST 5:12 PM PST
Nautical Twilight 6:47 AM PST 5:51 PM PST
Astronomical Twilight 6:10 AM PST 6:28 PM PST
Moon 11:41 AM PST (1/1) 12:47 AM PST (1/1)
Length of Visible Light 9h 46m
Length of Day
8h 35m
First Quarter, 55% of the Moon is Illuminated
Jan 1
First Quarter
Jan 8
Full
Jan 16
Last Quarter
Jan 22
New
Jan 30
First Quarter

Hourly Weather History & Observations

Time (PST) Temp. Windchill Dew Point Humidity Pressure Visibility Wind Dir Wind Speed Gust Speed Precip Events Conditions
12:53 AM 39.9 °F 33.9 °F 32.0 °F 73% 30.22 in 10.0 mi NE 9.2 mph - 0.00 in Rain Light Rain
1:53 AM 39.9 °F 33.4 °F 32.0 °F 73% 30.22 in 10.0 mi ENE 10.4 mph - 0.00 in   Overcast
2:53 AM 39.9 °F 32.9 °F 32.0 °F 73% 30.23 in 10.0 mi ENE 11.5 mph - N/A   Overcast
3:53 AM 39.9 °F 32.1 °F 33.1 °F 77% 30.22 in 10.0 mi ENE 13.8 mph - N/A   Overcast
4:53 AM 41.0 °F 33.5 °F 32.0 °F 70% 30.20 in 10.0 mi ENE 13.8 mph 23.0 mph N/A   Scattered Clouds
5:53 AM 41.0 °F 33.5 °F 33.1 °F 73% 30.20 in 10.0 mi ENE 13.8 mph - N/A   Overcast
6:53 AM 42.1 °F 35.2 °F 33.1 °F 70% 30.21 in 10.0 mi ENE 12.7 mph - N/A   Overcast
7:53 AM 42.8 °F 36.2 °F 33.8 °F 70% 30.19 in 10.0 mi ENE 12.7 mph - N/A   Overcast
8:53 AM 42.1 °F 35.2 °F 33.1 °F 70% 30.19 in 10.0 mi ENE 12.7 mph - N/A   Mostly Cloudy
9:53 AM 45.0 °F 38.2 °F 33.1 °F 63% 30.18 in 10.0 mi ENE 15.0 mph 26.5 mph N/A   Clear
10:53 AM 46.9 °F - 33.1 °F 59% 30.18 in 10.0 mi ENE 18.4 mph 25.3 mph N/A   Clear
11:53 AM 48.0 °F - 33.1 °F 56% 30.15 in 10.0 mi ENE 13.8 mph 23.0 mph N/A   Clear
12:53 PM 50.0 °F - 34.0 °F 54% 30.11 in 10.0 mi ENE 17.3 mph 25.3 mph N/A   Clear
1:53 PM 51.1 °F - 33.1 °F 50% 30.10 in 10.0 mi ENE 13.8 mph 25.3 mph N/A   Clear
2:53 PM 51.1 °F - 34.0 °F 52% 30.08 in 10.0 mi ENE 15.0 mph 26.5 mph N/A   Clear
3:53 PM 51.1 °F - 34.0 °F 52% 30.08 in 10.0 mi ENE 16.1 mph 25.3 mph N/A   Clear
4:53 PM 50.0 °F - 34.0 °F 54% 30.07 in 10.0 mi ENE 16.1 mph 21.9 mph N/A   Clear
5:53 PM 50.0 °F - 34.0 °F 54% 30.06 in 10.0 mi NE 11.5 mph - N/A   Clear
6:53 PM 48.0 °F - 34.0 °F 58% 30.06 in 10.0 mi NE 9.2 mph - N/A   Clear
7:53 PM 48.2 °F - 33.8 °F 58% 30.04 in 10.0 mi ENE 5.8 mph - N/A   Clear
8:53 PM 45.0 °F 40.6 °F 35.1 °F 68% 30.04 in 10.0 mi ENE 8.1 mph - N/A   Clear
9:53 PM 46.0 °F 41.4 °F 34.0 °F 63% 30.03 in 10.0 mi ENE 9.2 mph - N/A   Clear
10:53 PM 45.0 °F 38.9 °F 35.1 °F 68% 30.04 in 10.0 mi East 12.7 mph - N/A   Clear
11:53 PM 44.1 °F 38.6 °F 34.0 °F 68% 30.02 in 10.0 mi ENE 10.4 mph - N/A   Clear